RH
42 40 37 31 31 25 23 27 33 43 55 67 83 86 86 87 89 92 94 92 90 87 91 85 82 86 89 77 71 74 73 70 67 67 68 65 58 57 56 50 44 44 44
43 40 36 34 33 27 23 25 29 36 46 57 72 81 84 87 93 96 97 94 95 91 90 87 91 91 93 93 85 74 76 78 73 73 76 72 68 61 54 52 52 50 51
41 40 39 35 36 30 22 23 26 33 40 55 73 78 81 87 91 96 98 97 92 90 90 90 95 94 93 95 91 74 77 78 84 82 81 75 69 62 58 54 52 55 55
38 39 36 38 36 33 22 21 24 30 36 48 65 70 74 82 85 91 96 93 90 93 91 94 95 95 94 87 82 75 73 83 82 81 78 74 70 68 65 65 67 65 62
36 37 35 38 35 37 27 20 24 27 33 40 50 62 67 76 80 84 90 94 92 86 91 92 90 88 80 77 73 73 78 85 80 79 77 74 72 72 71 77 81 78 79
35 36 35 38 37 37 37 23 23 28 32 36 42 47 55 60 69 75 82 86 84 84 84 87 84 80 76 77 75 75 80 85 81 80 75 74 72 71 69 70 69 67 67
37 38 39 37 37 36 41 29 28 28 31 36 41 46 49 54 59 64 70 75 84 83 81 82 80 82 79 77 78 80 81 86 86 79 76 79 81 81 79 76 75 76 76
39 41 44 38 31 36 42 38 34 29 29 32 37 43 48 51 53 54 57 61 66 67 69 70 72 73 73 73 74 79 83 83 86 78 80 80 84 85 85 83 82 82 83
43 44 41 42 31 33 39 42 39 34 30 30 34 39 43 46 48 51 52 53 55 58 60 62 63 65 66 72 76 79 82 79 81 77 73 75 81 80 83 85 83 83 84
44 43 47 48 44 33 35 42 44 41 32 34 33 35 39 42 46 46 46 48 49 50 54 56 57 59 60 61 65 69 71 72 77 72 69 70 73 75 78 82 84 83 84
50 53 57 53 51 43 36 41 47 49 43 35 36 37 36 39 42 46 47 48 49 49 48 49 52 54 56 59 64 65 68 72 76 74 73 72 74 77 79 81 84 84 85
52 53 56 64 61 50 45 44 48 49 51 47 38 37 39 39 41 41 45 48 49 50 52 53 54 58 60 60 60 60 64 68 70 67 68 67 70 73 76 79 82 85 85
57 55 57 57 62 69 67 52 51 52 54 55 53 43 42 39 40 41 41 45 47 48 50 51 50 52 53 56 58 57 58 59 59 58 57 55 59 59 59 62 72 79 83
61 61 59 59 61 63 69 75 74 64 59 57 58 57 51 44 41 40 41 43 45 45 45 47 47 49 52 55 57 56 55 54 52 52 52 52 53 52 55 59 60 66 73
59 62 63 63 59 60 62 66 66 65 71 70 63 59 62 58 55 48 42 43 48 48 50 52 51 53 53 52 54 54 56 57 55 53 50 51 53 53 56 61 62 67 71
62 61 60 59 59 62 59 61 64 64 63 71 71 67 59 59 56 60 61 59 54 50 56 55 57 58 53 51 56 59 59 59 56 53 56 57 59 57 62 67 69 69 71
63 59 53 50 50 50 50 49 54 59 63 65 65 71 73 71 61 59 62 64 66 67 65 63 64 63 64 61 61 63 70 67 62 64 68 68 67 69 72 74 74 76 74
54 49 44 37 32 30 31 34 39 44 54 59 61 58 65 72 73 66 64 63 62 66 67 69 70 71 67 66 67 72 74 73 69 70 72 72 72 78 81 82 83 81 82
46 40 37 34 30 26 25 25 30 37 39 41 47 54 56 60 69 74 71 66 67 65 67 71 76 75 72 74 72 76 82 84 81 77 78 79 81 83 86 91 87 88 87
52 50 41 33 26 25 26 25 24 25 26 33 38 43 45 50 55 56 61 66 68 67 71 73 73 72 75 70 73 80 84 84 80 81 84 85 85 85 89 93 92 92 91
50 35 30 28 27 27 26 26 25 25 26 28 29 35 41 46 48 49 51 58 64 68 72 77 78 81 80 78 80 83 86 87 86 88 86 85 86 89 91 94 95 94 95
32 27 27 28 29 28 27 26 26 25 25 25 28 31 33 38 41 45 50 56 63 70 73 76 80 86 87 87 88 91 93 94 96 92 90 91 92 93 94 96 96 97 97
35 37 36 35 34 32 29 28 28 26 26 26 28 29 33 34 39 41 48 55 66 74 80 87 89 89 89 91 92 92 97 96 96 97 92 92 96 98 95 95 98 96 96
43 42 40 38 36 34 33 33 32 32 32 32 32 35 35 36 41 46 49 57 64 72 85 91 93 94 92 94 92 92 90 95 99 98 96 99 96 95 96 96 96 98 97
47 46 44 41 39 38 38 38 39 39 40 39 38 40 43 44 51 60 61 61 65 73 81 89 94 99 87 98 92 90 94 98 98 96 97 96 96 97 94 96 96 96 97
51 50 49 48 47 45 45 45 45 47 47 47 48 50 53 54 59 73 86 80 75 75 81 88 91 93 91 96 96 87 98 97 94 97 97 97 95 95 96 99 94 95 96